Карточка аэропорта USRR

Внимание!
Информация на этой странице в стадии наполнения.
Если вы не увидели какой-то информации, или заметили неточность - пожалуйста сообщите нам!
Спасибо!
Команда RU-STAFF
Название аэропортаСургут
Название аэропорта (англ.)Surgut
Превышение196 ft. (59.7 m.)
Координаты61°20.502', 73°24.168'
Высота перехода700m
Эшелон переходаFL040
Коды ответчика5570-5577
Зона ОрВДТюмень РПИ (USTV)
Данные METARUSRR 300800Z 19003MPS 150V240 9999 SCT007 BKN025 M13/M14 Q1013 R07/490142 NOSIG RMK QFE754
Проноз погоды (TAF)USRR 300558Z 3006/3106 17003G10MPS 6000 FEW005 BKN016 TEMPO 3006/3009 1200 BR SCT004 BKN015 TEMPO 3009/3018 2100 -SHSN SCT007 BKN016CB
NOTAMshow/hide NOTAM
AWOS   TABLE

Информация о ВПП

ВПП Длина ВПП (м.) Покрытие Курс ВПП Частота ILS
072780Асфальтобетон73110.5
252780Асфальтобетон253109.1

Диспетчерские позиции

Позывной Наименование органа УВД Частота
USRR_TWRСургут-Вышка120.800
USRR_APPСургут-Подход129.300



Спутниковое изображение